035  
AXUS43 KGID 280202  
MISGRI  
 
GID CWA HOURLY WEATHER ROUNDUP  
NATIONAL WEATHER SERVICE HASTINGS NE  
900 PM CDT MON MAR 27 2017  
 
NOTE: "FAIR" INDICATES FEW OR NO CLOUDS BELOW 12,000 FEET WITH NO  
SIGNIFICANT WEATHER AND/OR OBSTRUCTIONS TO VISIBILITY.  
   
..SOUTH CENTRAL NEBRASKA
 
 
 
CITY SKY/WX TMP DP RH WIND PRES REMARKS  
GRAND ISLAND CLEAR 45 42 89 S7 29.97R  
HASTINGS CLEAR 45 40 82 SE6 29.97R  
KEARNEY CLEAR 45 39 81 SE10 29.95R  
ORD CLEAR 51 40 65 SE9 29.92R  
YORK CLEAR 45 41 87 CALM 29.97R  
AURORA CLEAR 46 41 83 S5 29.96R  
LEXINGTON CLEAR 51 43 73 SE12G18 29.92R  
HOLDREGE CLOUDY 46 40 80 SE9 29.93R  
HEBRON CLOUDY 49 42 77 CALM 29.97R  
   
..NEBRASKA PANHANDLE
 
 
 
CITY SKY/WX TMP DP RH WIND PRES REMARKS  
CHADRON MOCLDY 52 35 52 NE9 29.83R  
ALLIANCE CLOUDY 57 34 41 S14G20 29.81R  
SCOTTSBLUFF LGT RAIN 59 33 37 VRB6 29.82R  
SIDNEY PTCLDY 52 32 46 SE10 29.83R  
   
..WESTERN AND NORTH CENTRAL NEBRASKA
 
 
 
CITY SKY/WX TMP DP RH WIND PRES REMARKS  
VALENTINE CLOUDY 55 38 52 SE8 29.89R  
AINSWORTH CLOUDY 54 44 69 SE9 29.90R  
ONEILL CLEAR 48 38 68 E7 29.94R  
BROKEN BOW CLEAR 49 42 77 SE8 29.91R  
IMPERIAL CLEAR 51 39 63 SE10 29.86R  
NORTH PLATTE CLEAR 53 42 66 SE9 29.88R  
MCCOOK CLEAR 52 42 69 E9 29.89R  
   
..EASTERN NEBRASKA
 
 
 
CITY SKY/WX TMP DP RH WIND PRES REMARKS  
NORFOLK CLEAR 46 37 71 SE8 29.95R  
SO SIOUX CITY CLEAR 46 40 79 E9 29.98R  
TEKAMAH CLEAR 45 41 86 SE5 29.97R  
COLUMBUS CLEAR 48 39 71 SE6 29.97R  
ALBION CLEAR 47 40 75 CALM 29.96R  
OMAHA EPPLEY CLOUDY 50 40 68 E5 29.97S  
OFFUTT AFB CLOUDY 49 41 75 CALM 29.97S  
MILLARD CLOUDY 51 42 70 CALM 29.98R  
LINCOLN CLEAR 45 39 79 E5 29.99R  
NEBRASKA CITY CLOUDY 47 39 74 CALM 29.98S  
BEATRICE CLOUDY 46 40 80 NE5 29.97R  
FALLS CITY CLOUDY 47 41 80 CALM 29.97R  
   
..NORTHERN KANSAS
 
 
 
CITY SKY/WX TMP DP RH WIND PRES REMARKS  
GOODLAND CLEAR 52 41 66 SE10 29.86R  
HILL CITY PTCLDY 53 42 66 E12 29.92R  
NORTON CLEAR 50 37 62 E9 29.91R  
PHILLIPSBURG CLEAR 50 41 71 E8 29.94R  
HAYS N/A 52 42 69 E12 29.93R  
RUSSELL MOCLDY 48 42 80 E9 29.93R  
CONCORDIA CLOUDY 49 46 90 E5 29.96R  
SALINA CLOUDY 53 46 77 S3 29.97R  
TOPEKA CLOUDY 53 47 79 N7 29.97R  
 
CLICK HERE TO GO TO PREVIOUS BULLETINS.

The Nexlab NE Page
The Nexlab KS Page Main Text Page